Location: Cold Norton
(51.6667°N, 0.6667°E)
Time: 07:55:41
(UTC+00:00)

MOS 1 Rocket - Pass Details

Date: 18 November 2025
Orbit: 610 x 813 km, 97.4° (Epoch: 13 December)

Event Time Altitude Azimuth Distance (km) Brightness Sun altitude
Rises 17:39:49 0° 162° (SSE) 2,884 6.4 -14.7°
Reaches altitude 10° 17:41:57 10° 161° (SSE) 1,998 5.6 -15.0°
Maximum altitude 17:46:17 81° 75° (ENE) 659 3.0 -15.7°
Drops below altitude 10° 17:50:52 10° 348° (NNW) 2,110 5.8 -16.4°
Sets 17:53:11 0° 348° (NNW) 3,061 6.7 -16.7°
